Вернуться в каталог

STARLINK-34025

АктивенСвязьVLEO
NORAD 63824·PAYLOAD·🇺🇸 United States

Запущен May 4, 2025 с Cape Canaveral Space Force Station

Loading…

Ближайшие Пролёты (ближайшие 24 часа)

TLE

СвежийSource: CelesTrak SupGP

Эпоха: Sep 14, 2026, 21:11 UTC

1 63824C 25092W   26257.88312500 -.00002578  00000+0 -93370-4 0  2576
2 63824  42.9997 183.7187 0001238 263.4832  89.8877 15.27587160    12

Отслеживайте STARLINK-34025 в реальном времени с AllMySat

Download on the App Store